| time (UTC) | temp F | wind direction | speed knots | gust knots | rain 1hr in | rain 24hr in | rain mn in | humidity % | barometer mb |
| 20260507094605 | 42 | 271 | 3.5 | 5.2 | 0.00 | 0.54 | 0.00 | 88 | 1003.8 |
| 20260507093050 | 42 | 359 | 1.7 | 5.2 | 0.00 | 0.54 | 0.00 | 89 | 1003.8 |
| 20260507091543 | 42 | 263 | 1.7 | 5.2 | 0.00 | 0.54 | 0.00 | 88 | 1004.0 |
| 20260507090021 | 43 | 276 | 2.6 | 9.6 | 0.00 | 0.54 | 0.00 | 87 | 1003.9 |
| 20260507084600 | 42 | 271 | 1.7 | 6.1 | 0.00 | 0.54 | 0.00 | 89 | 1004.1 |
| 20260507083035 | 42 | 258 | 2.6 | 7.0 | 0.00 | 0.54 | 0.00 | 89 | 1003.8 |
| 20260507081514 | 42 | 359 | 0.9 | 4.3 | 0.00 | 0.54 | 0.00 | 91 | 1004.0 |
| 20260507080036 | 42 | 315 | 1.7 | 4.3 | 0.00 | 0.54 | 0.00 | 91 | 1004.0 |
| 20260507074516 | 42 | 266 | 2.6 | 7.0 | 0.00 | 0.54 | 0.00 | 92 | 1003.9 |
| 20260507073055 | 42 | 359 | 1.7 | 5.2 | 0.00 | 0.54 | 0.00 | 93 | 1003.9 |
| 20260507071540 | 42 | 359 | 0.9 | 4.3 | 0.00 | 0.54 | 0.00 | 93 | 1003.6 |
| 20260507070053 | 42 | 359 | 0.9 | 4.3 | 0.00 | 0.54 | 0.00 | 93 | 1003.5 |
| 20260507064544 | 42 | 359 | 0.0 | 0.0 | 0.00 | 0.54 | 0.00 | 93 | 1003.4 |
| 20260507063030 | 42 | 359 | 0.0 | 2.6 | 0.00 | 0.54 | 0.00 | 93 | 1003.2 |
| 20260507061521 | 42 | 359 | 0.0 | 1.7 | 0.00 | 0.54 | 0.00 | 93 | 1003.7 |
| 20260507060014 | 42 | 265 | 0.0 | 3.5 | 0.00 | 0.54 | 0.00 | 93 | 1003.5 |
| 20260507054602 | 42 | 237 | 0.9 | 2.6 | 0.00 | 0.54 | 0.00 | 92 | 1003.4 |
| 20260507053045 | 42 | 250 | 1.7 | 6.1 | 0.00 | 0.54 | 0.00 | 93 | 1004.2 |
| 20260507051533 | 42 | 231 | 0.9 | 3.5 | 0.00 | 0.54 | 0.00 | 93 | 1004.1 |
| 20260507050028 | 42 | 262 | 0.0 | 2.6 | 0.00 | 0.54 | 0.00 | 93 | 1003.7 |
| 20260507044515 | 42 | 247 | 1.7 | 3.5 | 0.00 | 0.54 | 0.00 | 93 | 1003.9 |
| 20260507043056 | 43 | 359 | 0.0 | 4.3 | 0.01 | 0.54 | 0.00 | 93 | 1003.3 |
| 20260507041536 | 43 | 249 | 0.0 | 3.5 | 0.01 | 0.54 | 0.00 | 93 | 1003.8 |
| 20260507040018 | 43 | 260 | 0.0 | 0.0 | 0.01 | 0.54 | 0.00 | 93 | 1003.7 |
| 20260507034555 | 43 | 269 | 0.0 | 0.0 | 0.01 | 0.54 | 0.54 | 94 | 1003.4 |
| 20260507033002 | 44 | 359 | 0.0 | 0.9 | 0.00 | 0.53 | 0.53 | 94 | 1003.4 |
| 20260507031541 | 44 | 269 | 0.0 | 0.0 | 0.01 | 0.53 | 0.53 | 94 | 1003.6 |
| 20260507030006 | 44 | 359 | 0.0 | 1.7 | 0.01 | 0.53 | 0.53 | 94 | 1003.6 |
| 20260507024606 | 44 | 359 | 0.0 | 2.6 | 0.01 | 0.53 | 0.53 | 94 | 1003.6 |
| 20260507023023 | 44 | 269 | 0.9 | 3.5 | 0.01 | 0.53 | 0.53 | 94 | 1003.8 |
| 20260507021559 | 44 | 234 | 0.0 | 4.3 | 0.00 | 0.52 | 0.52 | 94 | 1003.9 |
| 20260507020031 | 44 | 284 | 1.7 | 3.5 | 0.00 | 0.52 | 0.52 | 94 | 1003.8 |
| 20260507014606 | 45 | 293 | 0.0 | 2.6 | 0.00 | 0.52 | 0.52 | 94 | 1003.4 |
| 20260507013048 | 46 | 297 | 0.9 | 4.3 | 0.01 | 0.52 | 0.52 | 94 | 1003.4 |
| 20260507011522 | 46 | 310 | 1.7 | 4.3 | 0.02 | 0.52 | 0.52 | 94 | 1003.1 |
| 20260507004538 | 46 | 359 | 1.7 | 5.2 | 0.02 | 0.52 | 0.52 | 94 | 1002.6 |
| 20260507003011 | 46 | 235 | 0.0 | 4.3 | 0.01 | 0.51 | 0.51 | 93 | 1002.1 |
| 20260507001545 | 47 | 247 | 2.6 | 7.0 | 0.00 | 0.50 | 0.50 | 93 | 1002.0 |
| 20260507000030 | 48 | 330 | 0.9 | 7.8 | 0.00 | 0.50 | 0.50 | 93 | 1001.8 |
| 20260506234502 | 49 | 242 | 2.6 | 7.0 | 0.00 | 0.50 | 0.50 | 93 | 1001.2 |
| 20260506233013 | 49 | 205 | 0.0 | 2.6 | 0.01 | 0.50 | 0.50 | 93 | 1001.0 |
| 20260506231502 | 50 | 272 | 0.9 | 3.5 | 0.01 | 0.50 | 0.50 | 93 | 1000.8 |
| 20260506230046 | 50 | 279 | 0.9 | 7.0 | 0.01 | 0.50 | 0.50 | 93 | 1000.6 |
| 20260506224519 | 52 | 278 | 1.7 | 7.0 | 0.01 | 0.50 | 0.50 | 93 | 1000.4 |
| 20260506223004 | 53 | 266 | 0.0 | 6.1 | 0.00 | 0.49 | 0.49 | 92 | 1000.1 |
| 20260506221558 | 54 | 258 | 0.0 | 4.3 | 0.01 | 0.49 | 0.49 | 92 | 999.9 |
| 20260506220020 | 55 | 262 | 0.0 | 0.0 | 0.12 | 0.49 | 0.49 | 93 | 999.9 |
| 20260506214544 | 56 | 274 | 0.0 | 1.7 | 0.14 | 0.50 | 0.49 | 93 | 999.8 |
| 20260506213018 | 57 | 239 | 0.0 | 5.2 | 0.15 | 0.50 | 0.49 | 93 | 999.8 |
| 20260506211552 | 59 | 255 | 0.0 | 7.0 | 0.15 | 0.49 | 0.48 | 95 | 999.5 |
| 20260506210042 | 59 | 359 | 0.0 | 2.6 | 0.05 | 0.38 | 0.37 | 94 | 999.5 |
| 20260506204520 | 59 | 181 | 1.7 | 7.8 | 0.05 | 0.39 | 0.35 | 94 | 999.4 |
| 20260506203046 | 59 | 183 | 0.9 | 7.0 | 0.04 | 0.38 | 0.34 | 93 | 999.5 |
| 20260506201526 | 59 | 161 | 2.6 | 7.0 | 0.05 | 0.37 | 0.33 | 93 | 999.6 |
| 20260506200059 | 59 | 149 | 0.9 | 7.8 | 0.06 | 0.36 | 0.32 | 93 | 999.8 |
| 20260506194537 | 59 | 150 | 3.5 | 7.0 | 0.08 | 0.34 | 0.30 | 93 | 999.9 |
| 20260506193015 | 59 | 183 | 3.5 | 10.4 | 0.09 | 0.33 | 0.28 | 93 | 1000.0 |
| 20260506191558 | 59 | 172 | 2.6 | 7.8 | 0.09 | 0.32 | 0.28 | 94 | 1000.2 |
| 20260506190020 | 58 | 186 | 0.9 | 9.6 | 0.09 | 0.30 | 0.26 | 94 | 1000.3 |
| 20260506184550 | 58 | 143 | 3.5 | 8.7 | 0.06 | 0.26 | 0.22 | 93 | 1000.5 |
| 20260506183030 | 58 | 145 | 3.5 | 7.8 | 0.06 | 0.24 | 0.20 | 93 | 1000.6 |
| 20260506181622 | 58 | 151 | 3.5 | 14.8 | 0.08 | 0.23 | 0.19 | 93 | 1000.6 |
| 20260506180035 | 58 | 152 | 2.6 | 9.6 | 0.08 | 0.21 | 0.17 | 93 | 1000.9 |
| 20260506174550 | 58 | 163 | 1.7 | 10.4 | 0.10 | 0.20 | 0.16 | 92 | 1001.1 |
| 20260506173028 | 58 | 146 | 5.2 | 13.0 | 0.08 | 0.17 | 0.13 | 92 | 1001.5 |
| 20260506171504 | 58 | 162 | 2.6 | 13.0 | 0.07 | 0.15 | 0.11 | 92 | 1001.6 |
| 20260506170038 | 58 | 145 | 3.5 | 8.7 | 0.06 | 0.13 | 0.09 | 92 | 1001.6 |
| 20260506164508 | 58 | 183 | 2.6 | 7.8 | 0.04 | 0.10 | 0.06 | 91 | 1001.6 |
| 20260506163045 | 58 | 205 | 2.6 | 7.8 | 0.03 | 0.09 | 0.05 | 90 | 1001.7 |
| 20260506161532 | 58 | 153 | 1.7 | 7.8 | 0.03 | 0.08 | 0.04 | 90 | 1001.9 |
| 20260506160023 | 58 | 168 | 2.6 | 7.8 | 0.03 | 0.07 | 0.03 | 89 | 1002.1 |
| 20260506154514 | 58 | 134 | 1.7 | 6.1 | 0.02 | 0.06 | 0.02 | 89 | 1002.0 |
| 20260506153107 | 58 | 153 | 2.6 | 6.1 | 0.02 | 0.06 | 0.02 | 88 | 1002.5 |
| 20260506151521 | 58 | 149 | 2.6 | 7.8 | 0.01 | 0.05 | 0.01 | 85 | 1003.0 |
| 20260506150004 | 59 | 138 | 2.6 | 6.1 | 0.00 | 0.04 | 0.00 | 82 | 1003.2 |
| 20260506144538 | 59 | 166 | 1.7 | 3.5 | 0.00 | 0.04 | 0.00 | 82 | 1003.2 |
| 20260506143014 | 59 | 198 | 1.7 | 6.1 | 0.00 | 0.04 | 0.00 | 81 | 1002.8 |
| 20260506141549 | 58 | 154 | 1.7 | 5.2 | 0.00 | 0.04 | 0.00 | 82 | 1002.9 |
| 20260506140041 | 58 | 189 | 2.6 | 5.2 | 0.00 | 0.04 | 0.00 | 82 | 1002.9 |
| 20260506134502 | 58 | 145 | 1.7 | 5.2 | 0.00 | 0.04 | 0.00 | 83 | 1002.8 |
| 20260506133049 | 57 | 149 | 2.6 | 6.1 | 0.00 | 0.04 | 0.00 | 83 | 1003.0 |
| 20260506131541 | 57 | 143 | 0.9 | 5.2 | 0.00 | 0.04 | 0.00 | 83 | 1003.1 |
| 20260506130016 | 57 | 169 | 0.9 | 5.2 | 0.00 | 0.04 | 0.00 | 84 | 1003.5 |
| 20260506124559 | 56 | 177 | 3.5 | 8.7 | 0.00 | 0.04 | 0.00 | 85 | 1003.6 |
| 20260506123042 | 56 | 216 | 1.7 | 4.3 | 0.00 | 0.04 | 0.00 | 85 | 1003.8 |
| 20260506121530 | 56 | 170 | 0.9 | 6.1 | 0.00 | 0.04 | 0.00 | 85 | 1003.4 |
| 20260506120018 | 56 | 144 | 0.9 | 4.3 | 0.00 | 0.04 | 0.00 | 85 | 1003.2 |
| 20260506114550 | 56 | 168 | 0.9 | 7.8 | 0.00 | 0.04 | 0.00 | 85 | 1003.4 |
| 20260506113031 | 56 | 164 | 0.9 | 3.5 | 0.00 | 0.04 | 0.00 | 84 | 1003.5 |
| 20260506111546 | 56 | 162 | 1.7 | 8.7 | 0.00 | 0.04 | 0.00 | 84 | 1003.6 |
| 20260506110038 | 56 | 223 | 1.7 | 7.8 | 0.00 | 0.04 | 0.00 | 84 | 1003.6 |
| 20260506104508 | 56 | 166 | 0.9 | 7.0 | 0.00 | 0.04 | 0.00 | 83 | 1003.5 |
| 20260506103055 | 56 | 166 | 2.6 | 5.2 | 0.00 | 0.04 | 0.00 | 83 | 1003.3 |
| 20260506101534 | 56 | 179 | 1.7 | 7.8 | 0.00 | 0.04 | 0.00 | 82 | 1003.3 |
| 20260506100020 | 55 | 169 | 0.9 | 6.1 | 0.00 | 0.04 | 0.00 | 83 | 1003.5 |